YAOGAN 20A

Satellite information

Favourite Embed

Satellite Type and Status

PAYLOADIN ORBIT

Key statistics

Satellite YAOGAN 20A at a glance.

Uptime

3985

Days in orbit

Revolutions

≈ 13.5

Per day

Orbit

LEO

Low Earth Orbit

Inclination

63.4

Latest

Satellite identification and parameters

Extended collection of information and parameters for YAOGAN 20A.

Object identification

Identified? True

Debris? False

Object name: YAOGAN 20A

International designator: 2014-047A

Object number (NORAD): 40109

Object ID (CCSDS): 40109

Country: PEOPLES REPUBLIC OF CHINA (PRC)

Current information (Y/N): Y

RCS size: LARGE

Orbital parameters

Period: 107.032 minutes

Inclination: 63.3798 deg

SMA: 7467.393 km

Apoapsis: 1358.069 km

Periapsis: 820.448 km

RAAN: 189.9085 deg

Eccentricy: 0.0359979

Argument of periapsis: 12.8569 deg

Mean anomaly: 348.1342 deg

Mean motion: 13.45393235 rev/day

Mean motion (dot): -0.00000017 rev/day2

B* drag term: 0.000084432 1/REarth

Two-line elements (TLE)

Creation date: July 6, 2025, 6:05 p.m.

Reference frame: TEME

Reference center: EARTH

Epoch: July 6, 2025, 2:16 p.m. UTC

TLE line 0: 0 YAOGAN 20A

TLE line 1: 1 40109U 14047A 25187.59513861 -.00000017 00000-0 84432-4 0 9995

TLE line 2: 2 40109 63.3798 189.9085 0359979 12.8569 348.1342 13.45393235535944

Live tracking on map

Real-time ground track for satellite YAOGAN 20A.

In-orbit conjunctions

There are no conjunctions computed for YAOGAN 20A, at the moment. Check back to stay up to date, as we update our databases every day.

Go to all conjunctions

Associated space launch

YAOGAN 20A was lifted into orbit during the mission ‘Long March 4C | Yaogan 20A, Yaogan 20B, Yaogan 20C’, on board a Long March 4C space rocket.

The launch took place on Aug. 9, 2014, 5:45 a.m. from Launch Area 4 (SLS-2 / 603).

For more information about the launch, click the button.

Launch to space Long March 4C | Yaogan 20A, Yaogan 20B, Yaogan 20C
Long March 4C | Yaogan 20A, Yaogan 20B, Yaogan 20C

Agency: N/A

Status: Launch Successful

Launch date: Aug. 9, 2014, 5:45 a.m. UTC

Rocket: Long March 4C

Launch pad: Launch Area 4 (SLS-2 / 603)

Location: Jiuquan Satellite Launch Center, People's Republic of China

...

Latest news about this satellite

There are no fresh news available about this satellite. Check back as we update our databases every day.


Newsletter sign-up

Weekly statistics, charts and insights to help you stay on top of the space industry.